This is the latest recevied weather packets stored in our database for station/object N4QD-13. If no packets are shown the sender has not sent any weather packets the latest 10 day(s).
| Time | Temp. | Humidity | Pressure | Rain* | Wind** | Luminosity | Snow |
|---|---|---|---|---|---|---|---|
| 1777219891 | 11.67° C | 86% | 1020.7 hPa | 0 mm | - | 331 W/m² | - |
| 1777219588 | 11.67° C | 87% | 1020.5 hPa | 0 mm | - | 361 W/m² | - |
| 1777219285 | 11.11° C | 87% | 1020.4 hPa | 0 mm | - | 465 W/m² | - |
| 1777218980 | 10.56° C | 88% | 1020.5 hPa | 0 mm | - | 383 W/m² | - |
| 1777218676 | 10.56° C | 89% | 1020.4 hPa | 0 mm | - | 309 W/m² | - |
| 1777218372 | 10° C | 90% | 1020.3 hPa | 0 mm | - | 308 W/m² | - |
| 1777218068 | 10.56° C | 89% | 1020.3 hPa | 0 mm | - | 301 W/m² | - |
| 1777217764 | 10.56° C | 89% | 1020.5 hPa | 0 mm | - | 343 W/m² | - |
| 1777217460 | 10° C | 90% | 1020.5 hPa | 0 mm | - | 299 W/m² | - |
| 1777217156 | 10° C | 91% | 1020.5 hPa | 0 mm | - | 344 W/m² | - |
| 1777216852 | 9.44° C | 91% | 1020.4 hPa | 0 mm | - | 296 W/m² | - |
| 1777216549 | 9.44° C | 91% | 1020.4 hPa | 0 mm | - | 221 W/m² | - |
| 1777216245 | 9.44° C | 92% | 1020.5 hPa | 0 mm | - | 215 W/m² | - |
| 1777215943 | 9.44° C | 92% | 1020.2 hPa | 0 mm | - | 215 W/m² | - |
| 1777215639 | 9.44° C | 93% | 1020.3 hPa | 0 mm | - | 221 W/m² | - |
| 1777215335 | 9.44° C | 94% | 1020.2 hPa | 0 mm | - | 196 W/m² | - |
| 1777215032 | 8.89° C | 94% | 1019.9 hPa | 0 mm | - | 190 W/m² | - |
| 1777214726 | 8.89° C | 96% | 1020 hPa | 0 mm | - | 194 W/m² | - |
| 1777214426 | 8.89° C | 97% | 1020.1 hPa | 0 mm | - | 175 W/m² | - |
| 1777214120 | 8.33° C | 97% | 1020.2 hPa | 0 mm | - | 118 W/m² | - |
| 1777213815 | 8.33° C | 97% | 1020.1 hPa | 0 mm | - | 133 W/m² | - |
| 1777213510 | 8.33° C | 97% | 1019.9 hPa | 0 mm | - | 112 W/m² | - |
| 1777213208 | 8.33° C | 97% | 1020.2 hPa | 0 mm | - | 103 W/m² | - |
| 1777212904 | 8.33° C | 97% | 1020.1 hPa | 0 mm | - | 95 W/m² | - |
| 1777212602 | 8.33° C | 98% | 1019.9 hPa | 0 mm | - | 94 W/m² | - |
* Rain latest hour (hover to see other rain measurements)
** Current wind speed in m/s (hover to see current wind gust speed)